Location: Mexico
(19.4000°N, 99.1500°W)
Time: 16:02:40
(UTC-06:00)

ISS - Pass Details

Date: 10 August 2020
Orbit: 418 x 420 km, 51.6° (Epoch: 08 August)

Event Time Altitude Azimuth Distance (km) Brightness Sun altitude
Rises 19:30:47 0° 314° (NW) 2,354 1.4 -6.1°
Reaches altitude 10° 19:32:54 10° 309° (NW) 1,490 0.4 -6.6°
Maximum altitude 19:36:09 50° 233° (SW) 540 -2.9 -7.3°
Drops below altitude 10° 19:39:24 10° 157° (SSE) 1,487 -1.4 -8.0°
Enters shadow 19:40:37 - 153° (SSE) 1,976 -0.8 -8.3°
